Location: Unspecified
(48.2082°N, 0.0000°E)
Time: 05:58:16
(UTC+00:00)

Transit 4A - Pass Details

Date: 22 June 2019
Orbit: 862 x 982 km, 66.8° (Epoch: 15 July)

Event Time Altitude Azimuth Distance (km) Brightness Sun altitude
Rises 10:48:15 0° 270° (W) 3,659 10.8 61.2°
Reaches altitude 10° 10:51:29 10° 286° (WNW) 2,727 10.2 61.6°
Maximum altitude 10:56:15 21° 334° (NNW) 2,038 9.7 62.0°
Drops below altitude 10° 11:01:03 10° 22° (NNE) 2,746 10.3 62.4°
Sets 11:04:20 0° 38° (NE) 3,692 10.9 62.7°
